Total_Precipitation_Accumulation
0.12 0.13 0.29 0.23 0.18 0.21 0.22 0.23 0.22 0.20 0.17 0.17 0.17 0.15 0.12 0.11 0.11 0.11 0.12 0.15 0.18 0.24 0.28 0.33 0.39 0.38 0.43 0.44 0.41 0.42 0.41 0.42 0.47 0.50 0.54 0.57 0.67 0.83 1.00 1.00 1.05 0.66 0.62
0.04 0.08 0.25 0.19 0.16 0.17 0.18 0.19 0.20 0.19 0.17 0.15 0.14 0.12 0.12 0.12 0.12 0.12 0.15 0.18 0.21 0.24 0.27 0.32 0.33 0.32 0.32 0.32 0.31 0.33 0.37 0.46 0.55 0.61 0.66 0.60 0.72 0.88 0.96 0.93 1.06 0.63 0.53
0.05 0.05 0.13 0.17 0.14 0.15 0.17 0.18 0.19 0.18 0.18 0.17 0.15 0.13 0.13 0.14 0.14 0.14 0.16 0.21 0.22 0.25 0.26 0.28 0.27 0.24 0.22 0.23 0.25 0.31 0.42 0.56 0.77 0.94 1.11 0.72 0.50 0.80 0.87 0.81 0.68 0.46 0.47
0.05 0.04 0.06 0.12 0.13 0.12 0.14 0.15 0.18 0.18 0.18 0.19 0.17 0.15 0.15 0.17 0.20 0.22 0.22 0.23 0.25 0.27 0.24 0.24 0.23 0.19 0.18 0.19 0.24 0.34 0.45 0.57 0.93 1.29 1.42 0.67 0.32 0.47 0.57 0.51 0.46 0.43 0.42
0.06 0.05 0.06 0.09 0.10 0.10 0.11 0.14 0.16 0.17 0.18 0.20 0.18 0.16 0.18 0.21 0.26 0.27 0.28 0.27 0.28 0.26 0.24 0.25 0.22 0.20 0.18 0.19 0.25 0.36 0.43 0.59 0.93 1.16 0.97 0.76 0.65 0.46 0.41 0.42 0.47 0.46 0.44
0.09 0.07 0.08 0.11 0.10 0.09 0.11 0.12 0.14 0.18 0.20 0.20 0.17 0.18 0.19 0.25 0.27 0.27 0.26 0.27 0.27 0.24 0.24 0.23 0.21 0.20 0.21 0.22 0.29 0.37 0.52 0.72 0.87 0.65 0.56 0.68 0.63 0.47 0.42 0.49 0.51 0.45 0.42
0.10 0.12 0.12 0.14 0.12 0.12 0.12 0.13 0.15 0.16 0.18 0.19 0.18 0.19 0.21 0.26 0.26 0.25 0.24 0.26 0.24 0.22 0.23 0.24 0.23 0.21 0.24 0.26 0.33 0.40 0.57 0.78 0.80 0.52 0.54 0.77 0.63 0.39 0.45 0.56 0.68 0.57 0.43
0.16 0.18 0.20 0.22 0.20 0.18 0.16 0.15 0.16 0.19 0.20 0.21 0.23 0.22 0.22 0.25 0.27 0.26 0.26 0.27 0.25 0.23 0.23 0.24 0.25 0.24 0.27 0.31 0.38 0.43 0.50 0.57 0.56 0.50 0.51 0.64 0.45 0.35 0.43 0.60 0.76 0.73 0.66
0.39 0.48 0.40 0.28 0.24 0.25 0.24 0.23 0.22 0.24 0.26 0.26 0.27 0.25 0.26 0.27 0.28 0.29 0.30 0.31 0.30 0.28 0.28 0.26 0.24 0.28 0.31 0.34 0.39 0.44 0.49 0.55 0.63 0.65 0.55 0.58 0.38 0.39 0.48 0.57 0.70 0.79 0.79
0.58 0.59 0.53 0.40 0.35 0.27 0.24 0.26 0.28 0.30 0.31 0.29 0.28 0.29 0.29 0.29 0.31 0.35 0.35 0.41 0.42 0.43 0.46 0.44 0.37 0.36 0.40 0.44 0.43 0.49 0.54 0.55 0.59 0.65 0.80 0.62 0.47 0.52 0.60 0.62 0.69 0.81 0.87
1.04 0.91 0.76 0.50 0.41 0.38 0.32 0.29 0.37 0.38 0.37 0.38 0.41 0.40 0.50 0.65 0.64 0.75 0.66 0.75 0.71 0.74 0.74 0.75 0.70 0.67 0.70 0.59 0.62 0.72 0.70 0.64 0.81 0.90 0.82 0.59 0.61 0.80 0.91 0.78 0.75 0.80 0.85
1.55 1.36 1.10 0.80 0.63 0.56 0.47 0.49 0.57 0.56 0.67 0.71 0.87 0.91 1.16 1.39 1.33 0.98 1.05 1.26 1.31 1.31 1.25 1.27 1.39 1.25 1.10 0.97 1.25 1.48 0.95 0.81 0.95 0.90 0.83 0.90 1.07 1.32 1.45 1.20 1.00 0.89 0.86
1.71 1.53 1.40 1.18 0.96 0.76 0.78 0.77 0.84 0.97 1.27 1.18 1.11 1.24 1.60 1.50 1.24 1.10 1.22 1.51 1.78 1.77 1.72 1.80 1.96 1.62 1.71 1.92 2.03 2.05 1.42 1.17 1.27 1.20 1.01 1.19 1.43 1.74 1.95 1.74 1.39 1.19 1.05
2.27 2.03 1.80 1.64 1.43 1.36 1.25 1.14 1.04 1.08 1.21 1.22 1.34 1.27 1.59 1.72 1.60 1.54 1.68 1.77 1.97 2.18 2.54 2.42 2.55 2.43 2.35 2.20 2.24 2.24 1.94 1.83 1.73 1.80 1.79 1.72 1.77 1.97 2.24 2.22 1.93 1.62 1.38
2.71 2.49 2.34 2.19 2.10 2.06 1.88 1.67 1.34 1.38 1.34 1.37 1.57 1.56 1.66 1.91 2.00 2.10 2.07 2.03 1.91 2.24 2.65 2.88 2.59 2.87 2.89 2.50 2.18 2.06 2.03 2.00 2.19 2.39 2.25 2.42 2.32 2.27 2.48 2.53 2.33 2.09 1.92
2.86 2.98 3.06 2.92 2.80 2.78 2.56 2.36 2.08 1.87 1.93 1.88 1.89 2.01 2.15 2.33 2.47 2.53 2.40 2.33 2.12 2.13 2.42 2.63 2.63 2.86 2.75 2.60 2.03 1.93 1.89 2.03 2.22 2.26 2.27 2.73 2.67 2.43 2.42 2.56 2.56 2.41 2.25
3.02 3.46 3.72 3.76 3.65 3.61 3.48 3.14 2.75 2.56 2.56 2.68 2.72 2.73 2.65 2.73 2.94 2.82 2.61 2.31 2.21 2.26 2.40 2.38 2.40 2.50 2.36 2.28 2.04 2.11 2.08 2.00 1.89 1.94 2.10 2.31 2.24 2.08 2.07 2.17 2.38 2.53 2.68
3.31 3.87 4.18 4.32 4.53 4.40 4.32 3.95 3.47 3.21 3.07 3.02 3.07 3.06 2.93 2.96 2.85 2.78 2.47 2.13 2.19 2.31 2.31 2.29 2.14 2.23 2.25 2.31 2.31 2.15 2.23 2.11 1.72 1.69 1.76 1.73 1.82 1.67 1.83 1.93 2.04 2.24 2.68
3.62 4.29 4.68 5.14 5.41 5.28 4.98 4.46 4.00 3.85 3.61 3.39 3.34 3.24 3.05 2.83 2.67 2.72 2.41 2.29 2.21 2.25 2.15 1.98 2.20 2.31 2.32 2.35 2.18 2.08 1.88 1.68 1.45 1.30 1.27 1.16 1.33 1.52 1.70 1.74 1.80 1.88 2.37
3.71 4.47 5.07 5.59 5.75 5.46 4.92 4.49 4.31 4.14 3.79 3.51 3.19 2.91 2.64 2.49 2.31 2.43 2.23 2.16 2.26 2.30 2.13 2.13 2.31 2.31 2.09 2.18 2.00 1.83 1.63 1.35 1.23 1.11 0.95 0.95 0.93 0.90 1.14 1.50 1.79 1.52 1.86
3.94 4.65 5.23 5.58 5.51 5.28 4.92 4.53 4.22 3.74 3.42 3.13 2.81 2.57 2.34 2.08 1.98 2.20 2.05 2.25 2.18 2.05 1.89 1.86 1.95 1.95 1.72 1.98 2.18 1.76 1.33 1.11 1.00 0.86 0.85 0.91 0.85 0.91 1.14 1.47 1.66 1.76 1.64
3.71 4.20 4.60 4.54 4.21 4.07 4.01 3.89 3.62 3.64 3.50 3.32 3.09 2.84 2.45 2.24 2.05 1.90 2.00 1.88 1.84 1.90 1.70 1.59 1.75 1.75 1.53 1.81 1.93 1.89 1.40 1.19 0.99 0.69 0.74 0.75 0.84 1.03 1.06 1.16 1.46 1.64 1.57
3.12 3.42 3.47 3.35 3.13 3.13 3.17 3.09 3.14 3.39 3.44 3.38 3.21 2.95 2.66 2.49 2.33 2.16 1.99 1.80 1.75 1.63 1.61 1.57 1.63 1.65 1.56 1.53 1.59 1.74 1.43 1.14 0.97 0.68 0.59 0.67 0.90 1.14 1.12 1.22 1.26 1.41 1.44
2.34 2.49 2.53 2.58 2.57 2.54 2.56 2.49 2.40 2.47 2.62 2.83 3.06 3.10 3.08 2.86 2.59 2.30 2.10 1.86 1.63 1.48 1.59 1.34 1.42 1.62 1.68 1.44 1.40 1.38 1.31 1.41 1.39 1.06 0.73 0.64 0.87 1.02 1.08 1.03 1.13 1.36 1.50
1.63 1.77 1.86 2.13 2.40 2.46 2.45 2.52 2.42 2.19 2.16 2.20 2.33 2.47 2.49 2.50 2.37 2.10 1.97 1.86 1.61 1.41 1.39 1.37 1.54 1.52 1.50 1.40 1.42 1.41 1.48 1.59 1.45 1.34 1.08 0.95 0.96 0.88 0.90 0.95 1.11 1.29 1.46
1.27 1.43 1.65 1.94 2.30 2.49 2.53 2.49 2.41 2.33 2.28 2.16 2.11 2.12 2.01 2.03 2.01 1.90 1.78 1.75 1.58 1.42 1.40 1.36 1.44 1.49 1.53 1.57 1.55 1.51 1.57 1.53 1.51 1.65 1.45 1.24 1.15 0.96 0.95 1.05 1.22 1.37 1.47